Theta_e
341 341 343 349 349 348 347 347 347 346 346 346 345 344 344 348 349 348 348 347 348 347 346 344 343 343 344 348 347 345 344 343 342 341 341 342 342 342 342 342 343 341 341 342 341 342 344 347 348 348 348 348 348 348 347 348 348 347 347 347 346 345 346 346 346 345 345 345 345 345 345 345 347 346 346 347 347 346 344 343 343 341 340 341 343
340 342 343 345 348 346 346 347 346 344 343 343 343 343 344 346 348 347 347 347 347 346 345 344 343 342 345 345 346 344 342 341 341 341 340 339 340 340 340 340 341 341 341 342 342 341 342 346 347 347 347 347 346 346 347 346 346 345 345 345 345 345 344 344 344 343 343 344 345 344 344 344 344 345 345 345 346 345 343 343 342 339 338 342 344
342 342 343 345 348 348 347 345 344 344 345 344 344 344 347 348 347 347 347 347 347 347 346 344 343 343 342 345 345 345 344 343 341 340 340 339 339 340 341 341 341 340 341 341 340 341 342 343 344 345 345 344 345 346 346 345 345 345 344 345 345 344 343 343 343 342 342 342 343 342 342 343 343 344 345 345 345 344 341 342 342 341 338 342 342
341 342 343 346 347 348 348 347 346 344 343 343 343 344 345 347 347 347 347 347 347 347 345 343 342 341 341 343 346 345 343 343 343 341 340 341 340 339 339 339 341 341 341 341 341 341 340 341 342 344 342 343 345 345 345 345 345 345 345 344 344 344 344 343 343 342 341 340 340 338 337 335 338 341 342 344 345 344 341 341 342 342 342 340 340
341 342 343 343 344 346 347 346 345 345 345 345 344 344 345 347 347 347 346 347 347 345 345 345 344 344 343 342 341 340 340 342 343 342 341 340 340 339 339 341 341 340 340 341 341 341 340 339 340 341 340 341 344 344 344 344 345 345 345 345 344 343 343 342 342 341 340 339 338 336 334 335 337 340 345 345 344 341 340 340 340 341 340 341 341
341 342 342 343 343 344 346 346 346 344 344 344 344 344 345 348 347 347 347 347 346 346 346 345 342 342 341 341 341 340 340 342 342 343 342 341 341 341 341 341 341 341 341 342 341 341 341 341 340 340 340 341 343 343 344 344 344 344 344 343 343 343 342 341 340 339 339 338 337 334 334 335 335 338 342 344 343 340 340 340 340 341 340 340 340
342 342 343 342 343 343 346 346 346 345 344 344 344 344 345 348 347 347 347 347 346 346 345 344 343 343 341 340 340 340 345 345 345 344 343 343 341 339 337 338 339 340 341 341 340 341 340 341 341 340 339 340 343 343 343 343 344 345 344 342 342 342 341 340 339 338 337 335 333 333 334 334 335 337 343 343 342 341 340 341 341 341 341 340 340
342 342 343 343 342 344 345 346 345 345 345 344 343 344 344 347 347 346 347 347 346 345 345 345 344 342 342 340 338 340 343 344 344 346 346 345 344 341 340 340 340 340 340 340 340 340 341 341 342 341 341 341 342 342 342 343 343 344 343 342 341 341 340 339 338 337 337 333 332 333 333 334 335 335 342 342 342 342 342 340 340 340 339 338 336
340 341 343 342 342 344 344 346 345 345 345 344 344 344 344 347 347 347 347 346 346 346 346 344 343 342 342 341 340 339 339 340 343 344 344 345 344 344 343 342 342 342 343 342 342 341 342 341 341 341 340 341 342 342 342 342 343 343 342 342 341 340 339 338 337 336 334 332 332 332 332 332 333 334 339 340 340 338 337 336 337 338 337 335 335
340 342 342 341 342 342 343 346 346 345 345 345 344 343 344 345 346 347 347 346 346 345 345 344 343 343 342 340 339 339 339 340 342 344 344 344 344 344 343 343 342 343 343 342 342 342 341 341 341 341 341 342 341 341 341 342 342 342 341 341 341 340 339 337 336 335 332 331 332 332 334 336 332 333 337 339 338 337 336 334 335 333 333 334 334
340 341 342 341 341 343 346 346 346 345 345 345 344 344 343 343 345 346 346 346 345 345 345 344 344 342 341 340 339 338 337 342 344 343 344 344 344 343 342 342 342 342 342 342 342 342 341 341 340 340 341 341 341 341 341 341 341 341 341 340 340 339 338 336 334 331 331 330 330 331 335 337 332 333 339 338 337 337 336 336 335 334 333 333 333
340 341 341 341 344 342 345 345 346 345 345 345 344 343 343 343 345 346 345 346 346 345 345 344 343 342 340 340 339 338 337 339 342 343 343 342 342 342 342 341 341 341 340 340 340 341 341 340 340 340 339 340 340 341 340 340 339 340 339 340 338 337 336 335 331 329 329 329 330 330 329 331 330 334 337 337 337 336 335 334 333 333 333 332 332
340 341 341 341 341 341 344 345 345 345 345 345 344 344 343 343 343 344 344 345 345 344 344 344 342 341 341 339 338 338 338 337 337 341 339 339 339 340 340 340 340 339 340 340 340 341 340 340 340 339 339 339 339 340 339 339 339 339 339 339 339 337 334 333 329 328 328 328 328 327 327 326 329 336 336 336 335 335 334 333 333 332 332 331 331
340 340 341 341 341 344 341 343 344 344 345 344 344 343 343 343 343 343 343 343 344 344 343 342 341 340 339 338 338 337 337 337 340 339 339 339 340 340 340 340 340 339 340 339 339 339 339 339 339 338 338 338 339 339 338 338 338 338 338 337 338 335 332 331 330 328 328 327 328 327 326 328 329 334 335 335 334 333 332 331 331 330 330 329 329
339 340 341 341 341 341 343 340 342 342 344 345 344 344 343 343 342 342 342 342 343 343 342 342 341 339 338 337 337 337 337 339 341 343 340 340 340 339 339 339 339 339 338 339 339 339 339 339 339 338 338 338 338 338 337 337 336 336 336 336 335 332 329 326 326 325 324 325 324 324 324 325 332 333 333 333 331 330 330 330 330 329 327 326 326
340 340 341 340 340 340 340 342 339 340 340 342 343 343 343 343 343 342 342 342 342 342 342 341 340 339 339 338 337 337 337 338 339 342 342 341 339 338 338 338 338 338 338 338 338 337 337 337 338 337 337 337 337 337 336 336 335 335 334 332 330 329 326 324 322 321 321 322 322 322 322 326 331 330 330 330 330 330 328 327 327 327 327 327 326
340 340 340 340 339 339 340 341 337 336 337 338 338 340 342 343 343 342 342 342 342 341 341 341 341 341 342 341 341 341 339 339 341 341 341 340 340 339 339 339 339 338 338 337 337 337 337 337 337 337 336 336 336 336 335 335 335 335 333 330 329 327 325 323 321 320 321 322 322 322 323 323 329 330 330 329 328 328 328 328 326 326 326 325 326
339 340 340 340 339 339 339 338 337 338 337 335 334 337 339 341 341 341 341 341 342 342 342 341 339 339 338 337 338 338 338 338 338 339 338 339 339 338 338 337 337 337 337 337 337 337 337 336 336 336 336 335 335 335 334 333 334 333 332 330 328 326 323 321 320 320 321 323 320 321 322 330 328 328 328 328 328 327 326 325 323 323 323 323 323
338 338 340 339 338 338 339 338 337 337 337 336 336 336 335 336 338 338 339 339 338 337 336 336 335 334 334 334 334 333 332 333 334 335 335 335 334 332 334 336 336 336 336 337 337 337 337 336 336 336 335 334 334 333 333 333 333 332 331 328 326 324 322 320 318 319 319 319 319 319 321 331 329 329 329 329 327 326 325 324 325 324 323 323 324
337 337 338 338 337 338 337 338 338 338 337 336 336 335 332 332 335 336 336 335 334 333 332 331 329 328 328 329 328 328 328 327 327 328 330 332 332 329 331 336 336 336 336 336 336 336 336 336 335 335 334 333 332 330 331 331 332 331 328 326 323 320 319 318 318 318 319 319 319 320 329 331 328 327 327 326 326 326 325 325 324 323 322 322 323
335 336 337 336 337 337 337 337 337 338 337 337 335 334 332 330 331 330 330 330 330 329 328 324 322 322 323 324 325 327 326 326 325 325 324 326 324 326 331 335 336 335 335 335 335 334 335 335 334 334 332 330 328 327 326 328 329 329 326 323 321 320 320 318 318 318 318 318 319 320 332 331 328 329 328 327 327 325 324 323 323 323 322 321 323
329 331 335 336 336 337 337 337 337 338 337 338 337 335 332 332 331 329 329 327 326 324 325 325 328 324 323 325 326 326 326 326 325 328 324 325 325 324 327 331 334 334 334 334 334 334 334 334 333 333 331 329 325 319 318 322 324 325 322 320 321 318 319 319 318 318 317 317 318 323 329 326 326 327 326 325 325 324 323 323 323 322 322 321 321
327 329 331 334 336 337 338 337 336 338 338 338 338 334 333 332 331 330 328 327 328 327 327 327 325 325 323 324 324 325 326 325 325 325 325 322 324 324 326 329 331 331 332 333 333 332 332 332 332 331 330 328 318 318 317 317 317 319 317 319 317 318 319 318 318 318 317 316 316 326 331 325 326 326 326 324 324 324 323 322 322 322 321 320 320
328 328 330 332 335 336 337 337 336 338 337 337 336 334 334 333 332 331 329 328 328 329 328 327 326 325 326 324 322 322 325 325 326 326 325 322 322 322 323 324 325 326 326 327 330 330 330 330 329 328 326 322 317 317 317 318 317 315 316 317 317 318 319 318 316 317 317 317 318 326 329 326 326 325 326 324 324 323 323 322 322 321 321 320 320
329 330 330 331 333 336 336 337 336 338 337 336 335 334 334 333 332 331 330 329 329 328 328 328 327 325 325 325 323 324 325 323 323 323 322 322 320 321 321 322 322 319 321 318 320 321 318 316 317 318 316 317 319 318 319 318 316 316 316 317 317 316 317 318 317 316 317 316 317 323 325 326 323 323 324 324 323 323 322 322 322 321 320 320 320
329 329 329 331 332 335 335 336 336 337 337 336 336 334 334 333 332 332 331 330 329 329 328 327 328 326 324 324 325 325 324 324 323 322 322 322 321 320 320 320 318 318 319 319 317 315 315 315 315 316 316 316 317 319 318 318 317 317 317 317 316 316 315 315 317 317 317 316 317 322 325 326 324 325 324 324 323 322 322 322 321 321 320 320 321
328 329 330 330 332 333 334 335 336 336 336 337 337 334 334 334 333 332 330 329 329 328 328 326 328 326 325 324 324 323 323 323 322 321 321 322 322 321 319 320 320 319 319 319 316 315 317 316 316 318 316 316 315 315 316 316 316 317 317 316 315 316 315 315 315 316 314 315 316 320 324 326 326 327 325 325 324 323 321 321 321 321 320 319 320
327 329 329 330 330 332 333 334 335 336 335 336 336 335 334 334 333 330 330 329 328 327 328 326 328 327 325 326 323 323 323 322 322 320 320 321 320 321 321 319 322 320 320 320 319 314 316 315 315 315 316 315 315 317 316 317 315 314 316 316 315 315 317 315 313 316 314 313 313 317 321 324 326 327 326 324 323 323 323 322 322 321 321 320 319
325 327 328 329 330 332 333 334 335 335 335 335 334 335 335 334 333 331 330 327 328 328 328 327 327 326 326 324 323 322 321 322 322 321 320 321 320 320 319 320 320 321 318 315 318 316 315 314 313 314 315 314 315 317 317 315 314 314 315 316 315 316 315 316 314 313 314 314 313 314 319 322 325 326 325 324 324 323 323 323 322 321 321 321 320
326 327 327 328 330 331 332 333 335 336 335 334 333 334 334 333 333 332 331 327 329 328 327 326 326 326 325 325 323 322 322 322 322 321 320 320 319 320 319 319 320 318 316 317 314 314 314 314 313 313 313 313 313 316 314 314 313 313 313 314 313 315 312 313 313 312 315 314 314 314 316 319 323 326 326 325 324 323 323 323 323 322 322 321 320
327 327 327 327 329 330 330 333 334 333 335 333 332 333 333 333 333 333 330 329 329 329 327 327 326 326 326 325 323 323 323 322 322 322 321 319 319 319 318 317 316 315 317 318 316 316 314 315 313 313 312 312 313 314 314 315 313 313 312 313 315 313 313 311 312 312 313 314 314 313 314 316 320 324 327 326 324 324 324 324 323 323 323 322 322
327 327 328 328 328 330 329 331 333 333 334 334 331 332 333 332 332 332 330 330 329 329 328 327 325 326 325 325 324 323 321 321 322 322 321 319 318 318 316 315 316 314 316 317 315 316 316 314 313 313 312 312 313 311 315 314 312 314 311 312 311 313 313 312 313 312 312 312 314 315 314 314 316 320 322 327 326 327 327 327 324 324 324 323 323
329 329 329 328 328 329 330 329 332 332 334 333 332 332 333 332 332 332 331 331 329 329 328 327 326 326 326 325 325 324 323 322 320 321 320 319 319 318 315 314 316 316 315 314 314 313 312 311 312 312 312 311 312 311 312 312 314 312 311 314 314 313 312 312 314 314 313 313 312 312 314 314 314 315 317 319 324 326 327 327 325 324 324 324 324
327 329 329 329 329 331 331 330 331 332 332 333 333 331 332 332 333 333 331 331 330 329 328 328 327 326 326 325 324 325 323 322 321 320 319 319 319 319 317 315 315 314 314 314 315 313 312 311 311 313 313 311 310 309 310 310 311 309 308 310 311 315 314 312 311 313 311 312 314 311 313 313 313 313 314 315 318 321 325 326 327 324 324 324 324
325 327 329 329 329 330 331 331 329 331 330 332 331 332 331 332 332 333 332 331 330 329 328 327 327 327 327 326 326 324 323 321 319 322 319 319 318 317 317 315 315 313 313 314 314 313 314 313 309 311 310 310 309 311 309 311 309 312 312 309 312 313 311 314 310 310 310 313 313 312 312 312 313 313 313 312 312 316 321 324 326 325 325 327 325
327 327 328 329 329 330 330 331 329 329 330 331 332 332 331 332 332 329 332 331 330 329 328 328 327 327 327 327 326 325 323 321 319 318 320 319 318 317 316 315 314 314 314 313 314 314 312 312 311 312 311 310 308 311 308 310 308 310 310 310 310 310 311 310 311 310 312 310 312 313 314 312 312 312 311 312 312 313 316 319 324 326 327 327 328
329 327 327 328 328 329 329 330 329 329 330 330 330 331 331 331 332 332 333 331 330 330 329 329 328 327 327 328 328 327 326 323 320 319 318 320 317 318 316 316 315 314 314 312 313 314 313 313 312 311 312 309 309 309 310 307 310 310 309 308 309 310 311 312 312 312 309 308 311 311 312 313 312 309 311 311 312 313 314 315 319 322 322 324 326
329 328 327 328 328 329 329 330 330 330 330 331 330 330 331 331 330 331 331 332 331 330 330 329 329 328 327 327 328 328 327 327 324 320 319 319 319 319 318 318 316 315 314 313 313 312 312 313 312 310 311 310 308 308 308 308 308 310 310 308 309 308 308 309 310 307 309 311 311 311 312 312 311 311 311 311 312 313 313 314 315 316 316 318 323
328 327 327 328 328 328 328 327 329 329 330 331 330 329 329 329 328 329 329 332 331 330 330 329 329 329 327 326 327 327 326 327 326 324 324 323 322 320 319 319 317 315 314 313 311 311 311 310 311 310 308 311 310 308 310 310 311 310 309 309 308 308 308 306 307 306 307 309 311 311 310 310 310 310 310 310 309 311 312 313 314 314 314 314 319
327 327 325 326 327 327 327 327 328 329 329 330 330 329 328 327 326 324 326 329 331 329 329 330 329 329 328 327 326 327 326 326 326 326 326 325 323 320 319 318 316 315 314 312 311 311 311 309 308 309 308 307 307 310 310 310 310 309 307 306 306 306 306 305 306 307 307 307 307 307 308 309 308 309 308 308 309 309 309 311 310 313 313 314 315
325 325 325 326 327 327 326 326 328 329 329 329 329 329 328 326 324 325 325 327 329 329 329 329 328 329 328 328 327 327 327 327 326 327 325 322 322 319 317 316 316 315 314 313 312 311 311 311 310 309 311 310 311 311 312 312 310 308 306 305 305 306 306 305 307 307 306 306 305 305 305 305 306 307 308 306 306 306 307 308 309 310 311 312 313
323 324 324 326 327 327 327 327 327 328 329 330 329 329 329 329 328 327 324 323 327 328 328 329 328 328 327 326 327 328 328 327 326 326 325 324 321 319 317 316 314 314 314 312 311 309 310 311 310 308 307 310 310 312 312 310 305 304 303 304 303 304 306 306 305 306 305 304 304 303 304 304 305 306 306 305 305 304 305 306 306 307 308 310 311
323 324 325 325 326 326 328 328 328 328 328 328 329 328 329 328 328 325 326 319 322 329 330 329 328 327 327 327 327 327 327 327 326 326 325 324 323 321 319 317 315 313 311 311 311 310 309 309 309 309 306 306 310 311 311 311 308 304 305 304 303 303 303 300 302 303 304 303 302 302 303 303 304 305 305 304 304 304 305 305 305 306 306 307 309
322 323 324 325 326 326 327 328 328 328 328 327 326 329 328 327 326 323 323 324 322 323 327 327 328 327 326 326 327 327 327 328 327 326 325 324 322 321 320 318 318 315 314 313 311 311 310 310 310 310 309 308 308 309 310 310 311 307 303 304 301 300 301 304 300 303 302 303 302 302 302 302 302 302 302 302 304 304 305 305 304 305 305 306 307
321 323 323 325 327 326 327 328 328 328 328 326 326 327 324 323 323 319 320 320 318 321 321 323 326 326 326 325 326 326 327 328 327 326 325 324 322 320 319 319 319 317 315 314 313 312 311 310 310 309 308 309 306 303 306 308 309 311 310 301 300 298 300 304 304 308 301 299 299 300 300 300 301 301 300 301 302 302 303 303 304 304 304 305 305
319 321 323 325 326 327 326 327 328 328 328 327 326 326 324 325 322 321 320 320 320 319 321 322 323 324 326 327 326 326 326 327 327 326 326 324 323 320 319 318 317 317 316 315 314 311 309 309 309 310 309 310 311 307 307 306 308 308 310 311 311 307 304 302 305 303 305 304 302 300 301 301 301 301 300 300 301 302 302 302 303 303 303 304 304
317 319 320 322 324 325 325 326 327 327 327 326 326 324 325 325 324 324 323 322 321 322 321 320 323 324 325 326 326 325 326 327 327 327 326 324 323 321 319 318 317 316 315 314 313 312 311 311 312 311 311 311 310 309 310 309 305 305 306 306 307 306 306 304 303 303 301 303 303 303 303 301 301 301 301 300 301 301 302 302 302 303 303 303 303
314 312 314 315 318 320 322 323 324 325 327 326 325 326 326 325 324 323 323 323 322 322 321 321 321 322 323 323 324 325 325 325 325 325 326 324 323 323 322 321 319 317 314 314 314 313 313 313 313 312 312 311 310 310 310 310 308 307 304 304 304 306 306 304 304 303 301 299 302 305 305 304 302 302 301 301 301 302 303 302 302 302 303 303 303
305 307 310 313 315 316 319 321 322 321 324 325 325 325 325 325 325 324 322 322 322 320 318 319 321 320 321 320 323 324 325 325 324 322 322 322 320 322 322 320 318 317 314 314 313 313 313 312 310 310 310 310 310 311 310 309 308 308 301 302 303 303 303 303 302 301 299 298 299 301 303 303 300 301 301 302 303 303 303 304 303 303 303 302 302
302 303 304 307 311 313 316 317 319 320 321 323 324 324 324 323 324 323 322 319 317 316 317 318 319 317 319 317 320 322 322 322 321 322 321 321 321 321 321 320 319 318 314 314 313 313 312 312 312 311 311 310 310 310 310 310 309 309 308 306 302 301 301 300 300 299 299 300 298 300 302 303 302 305 303 302 302 302 302 303 302 302 302 302 302
299 301 302 304 307 312 314 315 318 318 318 321 322 323 322 322 323 322 321 319 316 316 315 315 316 314 317 314 317 320 320 321 321 321 322 321 321 318 320 320 319 315 314 316 315 315 314 313 313 312 311 310 310 309 308 308 309 308 308 308 307 306 305 304 303 299 299 297 297 299 301 302 301 302 304 305 304 304 303 303 302 302 302 302 302
Wind_Speed
3 5 4 8 9 11 12 12 12 13 13 13 13 12 12 14 14 14 13 13 14 16 17 16 15 15 18 19 20 19 19 18 18 19 18 18 18 18 18 19 19 19 19 19 18 17 17 18 20 20 21 21 21 21 21 21 20 20 20 19 20 21 21 21 21 20 20 21 20 19 19 19 20 20 20 20 21 19 16 18 15 12 10 15 19
7 4 4 5 10 11 12 12 13 13 13 13 13 12 11 13 13 13 13 13 14 16 16 16 15 15 18 18 19 19 18 18 18 18 17 17 18 19 18 18 18 19 19 19 19 18 18 19 19 19 20 20 20 20 20 20 19 18 17 17 16 18 19 20 20 20 19 19 20 20 20 20 20 20 20 21 20 20 17 18 17 10 9 19 21
7 6 4 5 10 10 12 13 13 14 14 14 14 13 14 13 13 13 13 13 15 16 17 16 15 16 16 17 18 17 18 18 18 17 18 18 18 17 19 18 19 18 18 19 19 18 18 17 17 19 19 18 19 19 19 18 18 17 17 17 16 17 20 20 20 19 18 18 18 19 19 20 20 20 21 21 21 20 18 19 18 16 13 21 19
8 5 4 7 9 10 12 12 13 14 13 13 12 11 12 13 13 13 13 13 14 16 16 16 16 16 16 17 17 16 16 17 18 17 17 18 18 18 17 18 18 19 19 19 19 19 18 17 18 18 17 16 18 18 17 17 17 17 17 17 20 21 20 19 19 18 18 17 17 14 10 9 12 20 20 21 21 20 18 20 20 21 21 19 20
9 6 5 5 6 9 11 12 13 13 13 13 12 12 14 14 14 13 13 13 15 16 16 15 16 16 16 15 17 17 16 16 17 17 18 18 18 18 18 17 18 18 18 18 19 19 19 18 17 16 16 16 17 17 17 17 17 17 17 19 19 20 20 19 19 18 17 17 16 12 8 8 9 17 18 21 20 19 19 19 20 19 19 19 20
8 6 5 5 5 7 11 12 13 13 13 14 13 11 13 14 14 13 13 13 14 15 15 16 15 14 16 16 16 16 16 15 16 16 17 17 17 17 16 17 18 17 18 18 18 18 18 18 18 17 16 15 17 17 17 17 17 16 16 19 20 20 19 18 18 17 15 15 13 8 8 8 8 9 19 19 18 17 19 19 19 18 18 19 19
10 6 6 5 5 7 10 12 14 13 13 13 11 11 13 14 13 13 13 14 14 15 15 15 15 15 15 15 15 15 16 16 16 17 17 17 17 16 15 16 17 17 18 18 18 18 18 18 18 18 17 17 17 17 17 17 17 16 16 19 20 19 18 18 17 15 14 10 7 7 6 7 6 6 18 18 18 19 19 19 19 18 18 18 17
8 6 6 5 5 8 11 12 13 13 13 12 11 11 12 15 14 13 13 12 13 14 15 15 15 14 15 15 13 15 16 15 15 16 16 17 16 16 16 15 17 17 17 17 17 17 18 18 18 18 17 16 17 17 17 17 18 18 19 19 20 19 18 18 17 14 13 8 6 6 6 6 7 7 18 19 19 19 19 19 18 17 17 17 13
8 8 7 6 5 11 11 11 13 13 13 13 12 12 12 15 13 13 13 13 13 13 14 15 15 14 14 15 14 14 15 15 15 15 15 15 16 16 17 17 17 17 18 17 17 17 17 17 17 17 17 16 16 16 17 18 19 19 20 19 18 18 18 16 14 13 8 7 7 7 6 5 6 7 16 20 19 19 18 15 15 18 17 14 15
9 8 8 5 6 11 11 11 13 13 13 13 13 12 12 14 13 13 13 13 13 13 13 14 14 15 15 14 14 13 14 15 14 15 16 16 16 16 17 17 17 17 17 17 17 17 17 17 16 15 15 16 15 16 16 17 18 19 20 20 19 18 16 15 13 10 8 7 8 8 8 9 4 7 14 18 18 18 15 14 11 10 11 16 16
10 9 8 7 8 11 12 11 11 12 13 13 13 12 12 12 13 13 13 13 13 14 13 15 15 15 14 14 13 13 13 15 15 14 15 16 16 16 17 17 16 16 16 17 17 17 17 16 16 14 14 15 15 15 15 16 17 17 18 18 18 17 16 14 10 7 7 7 7 6 8 11 5 5 15 16 17 16 13 12 13 13 14 14 15
10 9 8 7 10 12 12 12 11 12 12 13 13 12 12 12 13 14 14 14 14 13 14 15 15 14 13 13 13 12 12 14 14 13 14 15 16 16 16 16 16 16 15 16 16 16 16 16 15 14 13 13 14 14 15 15 15 15 15 14 15 14 13 12 7 6 5 6 5 5 4 4 4 9 16 16 15 15 14 14 13 13 14 14 14
10 9 8 7 6 12 12 12 11 11 12 13 12 12 11 11 13 13 13 14 13 13 14 14 14 14 14 13 12 12 12 12 11 11 11 13 14 14 15 15 15 15 14 14 15 15 15 16 15 14 13 13 13 14 14 14 14 14 13 12 11 12 13 12 7 7 6 6 6 5 5 4 4 14 14 14 14 14 14 14 15 15 14 14 14
10 9 8 7 6 11 13 12 11 10 11 12 12 12 11 12 12 12 13 13 13 13 13 14 14 13 12 13 12 12 12 12 13 11 14 13 13 13 14 14 13 14 14 14 14 14 14 15 14 14 12 12 12 13 13 13 13 13 13 11 9 11 11 9 8 6 6 6 6 6 6 5 5 13 14 14 13 13 13 13 14 14 14 13 13
11 10 9 7 6 7 12 12 11 10 10 10 10 10 12 12 12 12 12 13 13 13 12 12 12 12 12 12 12 12 12 13 12 13 14 13 12 13 14 14 14 14 14 14 13 14 13 13 13 13 11 11 11 12 12 12 13 13 13 12 10 10 10 6 6 5 6 5 4 5 4 4 11 12 14 14 13 12 12 12 13 14 12 12 12
12 10 9 7 6 6 7 10 11 11 10 10 9 9 10 10 11 10 11 12 12 12 12 11 11 11 11 11 11 11 12 12 13 12 11 11 13 13 14 14 14 13 13 13 13 13 13 13 13 12 10 10 10 10 11 11 11 11 11 13 12 12 12 8 6 5 5 5 5 4 4 4 12 12 11 12 12 12 12 12 13 12 12 12 12
11 10 10 8 7 5 6 7 8 11 11 10 9 9 9 9 10 11 10 10 11 11 11 10 11 12 12 12 12 11 11 13 12 12 12 14 14 13 14 14 14 13 12 12 12 12 12 12 11 11 10 9 10 9 9 9 9 10 10 11 12 11 11 9 6 5 6 5 4 4 4 3 9 11 11 11 11 11 12 12 12 11 11 11 12
11 10 10 9 7 5 6 6 7 7 6 8 9 10 9 9 10 10 10 10 10 10 9 10 11 11 10 11 10 10 11 11 11 10 9 11 12 11 11 12 12 12 12 12 12 11 11 11 11 11 10 9 9 8 8 8 9 9 9 10 10 10 11 10 5 5 5 5 5 3 3 6 10 9 10 10 11 10 10 11 10 10 10 9 9
10 10 9 9 8 6 6 6 6 5 6 5 5 7 10 9 10 10 10 10 10 11 11 11 11 11 11 10 10 10 10 11 10 11 10 11 10 9 10 10 12 12 12 12 12 12 12 11 11 10 9 8 8 8 7 7 7 8 8 9 8 10 11 7 5 5 5 5 4 4 3 6 8 9 9 9 10 10 10 10 10 9 9 9 11
9 10 9 8 8 7 6 6 6 6 5 5 6 5 8 10 10 10 10 10 10 10 10 10 10 11 11 10 10 8 9 8 10 8 10 10 10 8 10 10 11 12 12 12 11 11 11 10 10 9 8 7 7 7 6 6 6 6 8 8 8 6 6 6 5 5 5 4 3 4 5 6 7 7 8 8 8 8 8 8 10 8 7 8 9
7 9 9 8 9 9 8 6 6 7 6 6 5 6 7 9 8 10 11 10 10 9 10 10 9 9 9 10 9 6 5 5 6 5 8 6 10 11 10 10 10 11 10 11 10 10 10 9 8 7 7 7 6 5 5 5 5 6 7 8 6 4 6 5 6 5 4 4 3 3 5 3 6 7 6 7 7 7 7 7 7 8 8 7 9
7 8 8 9 8 8 9 8 6 8 7 6 5 5 6 7 6 5 6 7 8 8 7 5 6 5 8 7 5 5 5 4 5 5 5 6 7 11 11 10 10 10 10 10 10 9 8 7 7 7 7 6 5 3 2 4 5 6 6 7 5 4 4 5 5 5 3 3 3 4 5 4 5 5 5 5 6 6 6 6 7 7 7 7 6
6 7 7 9 8 8 8 9 7 9 8 7 6 6 6 5 5 5 5 6 6 5 5 5 4 5 4 4 4 5 4 4 5 5 5 6 7 10 10 10 10 9 9 10 9 9 7 6 5 5 5 4 1 1 1 0 1 6 5 4 2 3 4 5 5 4 4 3 3 5 5 3 4 5 4 5 5 6 5 6 6 6 6 6 6
7 6 7 6 8 8 9 10 9 9 8 7 6 6 5 5 5 5 5 5 5 5 4 4 4 4 4 3 3 3 4 5 6 10 7 4 5 7 9 9 10 9 9 6 7 7 6 5 4 2 1 0 1 1 1 1 1 2 1 3 1 4 4 4 6 5 4 3 3 5 6 4 4 3 4 4 4 4 5 5 6 6 6 6 6
6 6 5 7 8 9 8 9 8 9 9 7 7 7 6 6 5 6 6 5 5 5 5 4 4 4 4 3 3 4 5 5 5 5 5 4 4 4 3 4 4 3 6 3 3 3 3 2 2 1 1 2 1 3 3 2 2 1 1 1 0 3 3 3 5 5 5 3 4 6 3 3 1 2 3 2 3 4 5 5 5 5 5 5 6
5 7 7 7 7 9 8 7 8 9 9 8 8 8 8 7 6 6 6 5 6 5 5 4 5 4 4 4 6 5 6 6 5 5 5 5 4 4 3 3 2 3 2 3 1 2 2 2 3 2 2 1 2 4 3 1 2 2 1 1 1 2 2 4 3 4 4 5 4 8 7 4 6 3 3 3 2 3 4 4 5 5 4 4 7
7 8 7 5 7 7 8 8 9 9 9 8 7 7 7 7 7 7 7 6 5 6 6 5 6 4 4 5 7 6 6 6 5 5 5 5 5 5 4 3 3 3 3 4 2 2 3 3 2 3 1 2 3 3 4 2 1 1 1 1 2 1 1 2 3 3 3 3 4 8 7 6 6 6 5 5 6 6 4 5 5 5 5 4 5
7 8 7 6 8 8 8 8 9 9 8 8 8 8 7 7 7 7 7 7 7 6 6 6 7 6 5 5 5 6 6 6 5 5 5 5 5 5 5 4 4 4 5 4 4 3 3 3 2 1 2 3 3 1 0 0 2 2 1 0 1 1 0 0 2 4 3 3 3 5 6 4 1 5 6 6 5 6 6 6 6 5 5 5 5
9 9 8 8 8 8 8 9 8 10 8 9 8 8 7 7 7 7 7 7 6 6 7 6 6 6 5 5 4 6 6 6 6 5 5 6 5 5 5 6 5 6 5 4 5 5 4 4 3 3 4 4 1 1 0 2 1 1 1 1 1 1 1 0 1 4 4 4 4 4 6 5 2 4 6 6 8 5 7 7 7 7 6 6 6
10 10 9 9 8 8 9 10 10 10 9 9 8 8 8 8 8 8 7 7 6 6 5 6 6 6 6 5 5 5 6 6 6 5 6 6 5 5 5 6 7 6 3 4 4 4 3 2 1 3 3 2 2 3 3 3 3 3 1 3 3 3 2 2 2 4 4 4 4 4 7 6 5 4 6 7 8 6 8 8 9 8 9 7 7
10 11 10 9 8 9 9 9 9 9 8 8 7 9 8 8 8 8 7 8 7 7 6 6 6 6 6 5 4 4 5 6 6 6 6 5 5 4 5 6 6 6 5 5 5 4 3 3 3 3 3 3 3 4 3 4 3 3 3 3 4 3 3 3 3 3 4 5 5 4 5 8 7 6 5 7 9 10 9 10 9 10 10 9 10
12 12 10 8 9 11 9 9 10 10 10 8 7 8 8 7 8 7 7 7 7 7 6 6 7 7 5 5 4 4 4 5 5 6 6 5 5 5 4 4 5 4 5 5 5 4 4 3 4 3 3 3 4 3 4 4 4 4 3 4 3 3 4 3 3 3 4 4 5 5 5 5 8 8 8 8 9 11 12 12 11 11 11 11 11
8 11 11 9 11 11 10 9 10 10 11 10 8 7 7 7 8 7 7 7 7 7 6 6 6 6 6 5 5 4 5 5 5 5 6 6 6 5 4 3 4 4 4 4 4 4 3 2 1 2 1 1 0 2 2 4 5 5 3 5 4 4 4 3 4 3 4 4 5 5 6 5 5 8 10 10 10 10 12 13 13 13 13 13 13
9 8 10 12 10 8 9 7 9 11 11 9 8 7 7 7 7 7 7 7 6 7 6 6 6 6 5 5 4 5 4 5 5 4 5 6 6 6 6 4 4 4 4 4 4 4 4 2 2 1 2 1 3 3 1 4 4 3 2 3 3 5 5 4 4 4 4 4 4 4 6 6 6 6 7 11 11 11 12 14 15 15 14 14 14
7 8 12 13 11 10 9 8 9 10 10 9 10 9 7 7 7 7 7 7 7 6 6 5 6 6 6 5 5 4 4 3 3 5 5 6 6 6 6 6 5 4 5 5 6 4 5 4 3 3 3 3 3 4 3 4 3 5 4 3 4 5 4 5 4 3 4 5 4 4 5 6 6 6 6 6 9 13 13 13 14 15 16 14 15
9 9 10 10 11 10 11 10 8 9 9 9 9 9 8 7 7 7 7 7 7 7 6 6 6 6 6 6 6 6 4 3 2 3 5 5 6 6 6 5 5 5 4 4 4 5 4 4 4 4 4 4 3 5 4 4 3 4 4 4 5 4 5 4 5 4 5 4 5 6 6 6 6 7 7 6 6 8 14 15 13 13 16 17 17
11 9 10 9 11 11 12 12 12 10 9 8 7 7 7 7 7 8 8 8 7 7 6 6 6 6 6 7 7 7 6 4 3 3 3 4 5 6 6 6 5 6 5 4 5 5 4 4 4 4 4 5 4 5 4 4 4 5 5 4 5 5 6 7 6 6 4 4 5 6 6 6 6 7 7 7 7 7 11 15 15 16 17 17 17
11 11 10 12 12 11 12 12 11 11 9 8 7 7 7 7 6 7 7 8 8 7 7 6 7 7 6 7 7 7 8 8 5 3 3 4 4 5 5 6 6 6 6 5 6 4 4 5 5 4 5 4 5 4 5 4 4 5 5 5 6 5 6 6 6 6 6 6 6 6 7 6 6 6 7 6 6 7 7 11 16 17 17 17 16
10 12 10 9 8 9 10 11 11 11 9 8 7 6 5 5 5 6 7 8 7 7 8 7 7 7 7 7 9 8 8 8 8 5 5 5 4 5 5 6 6 6 6 5 4 4 4 4 5 5 3 5 5 4 5 5 4 5 5 6 5 6 6 5 5 5 7 7 7 7 5 7 6 6 6 6 6 6 7 7 7 9 11 16 17
11 11 11 9 9 8 8 9 10 11 8 7 7 6 6 6 6 5 6 7 7 8 8 8 7 7 7 7 7 8 9 8 8 8 7 6 6 5 6 5 5 6 6 6 6 6 7 5 4 5 4 4 3 4 4 2 3 4 6 6 5 5 5 6 5 6 7 7 7 6 7 6 6 6 6 6 6 6 7 6 7 8 7 11 16
11 11 11 11 11 11 10 12 11 11 10 9 9 9 9 7 5 7 8 7 8 8 8 8 8 7 7 8 8 7 8 10 9 8 8 7 6 5 5 4 5 6 6 8 8 6 6 6 5 4 6 5 5 4 4 3 3 5 4 5 6 5 6 5 7 7 8 7 6 6 6 6 6 7 7 5 6 6 6 6 6 6 7 6 9
10 11 13 14 12 11 12 11 9 11 12 12 11 10 10 11 10 10 7 7 8 9 9 8 8 7 7 7 8 8 8 8 8 8 8 7 7 6 5 6 6 6 7 6 5 5 5 5 4 3 3 6 5 5 5 4 2 5 5 6 5 6 8 8 8 8 8 7 6 6 6 7 8 7 6 6 6 6 7 7 7 7 7 7 7
14 15 15 13 12 11 12 11 11 12 11 12 11 11 10 9 9 6 8 4 4 7 7 8 7 8 8 8 8 8 8 8 8 8 8 8 8 7 7 6 6 6 5 5 6 5 6 7 6 7 5 3 4 2 4 7 5 1 0 3 6 7 3 1 4 7 8 7 6 6 8 7 10 8 6 6 6 8 8 7 8 8 8 8 8
11 11 11 13 12 12 11 12 12 11 11 12 12 11 11 8 7 5 5 7 6 6 7 7 8 8 9 8 8 8 8 8 8 8 7 7 8 8 7 6 7 6 7 7 6 7 6 6 6 6 4 4 4 6 4 6 6 4 3 5 2 0 9 3 3 5 7 9 7 9 6 7 8 7 5 7 8 8 8 8 9 9 9 9 9
12 12 12 12 11 14 14 14 13 13 12 12 13 10 8 6 6 4 4 4 1 6 6 7 9 9 8 9 10 8 9 8 8 9 9 8 8 8 7 7 7 7 7 7 7 9 8 7 7 6 6 7 6 4 4 5 6 7 6 1 2 1 6 5 5 8 2 3 5 7 7 7 8 8 7 8 7 8 8 8 9 8 9 9 9
12 12 12 14 13 13 12 12 10 11 11 12 12 10 11 11 10 9 9 9 10 8 12 13 10 10 11 8 7 9 9 9 8 8 10 9 9 8 7 7 7 7 7 7 7 5 5 6 7 7 7 7 7 6 5 3 7 7 7 7 6 7 4 2 4 7 1 5 6 5 6 7 7 7 7 7 8 9 8 9 9 10 9 9 9
12 11 11 11 12 11 11 11 12 11 11 11 12 11 10 11 14 14 13 13 13 11 8 7 9 7 6 8 8 8 9 9 8 8 8 9 8 7 7 7 7 7 7 6 6 6 6 7 6 6 7 7 5 7 8 5 0 3 5 7 6 5 4 4 7 5 10 3 2 3 6 6 7 8 8 8 9 9 8 9 10 10 9 9 9
11 7 7 6 9 10 11 11 9 10 10 10 12 13 13 12 13 12 12 12 12 12 9 7 6 7 8 8 7 8 8 8 8 8 8 8 7 7 7 7 6 6 7 7 7 7 6 5 6 7 6 6 7 8 8 5 6 4 5 7 7 8 6 5 5 7 8 10 13 5 6 6 6 9 9 8 9 10 10 9 9 9 9 9 9
6 8 9 9 9 8 9 8 9 8 10 12 13 13 13 13 13 12 11 10 10 7 6 6 7 7 8 6 7 7 8 8 7 7 7 7 7 7 6 6 5 6 6 6 6 7 8 7 6 6 6 6 6 7 5 5 5 7 3 4 4 6 5 5 4 3 6 8 11 8 12 4 5 7 6 7 8 8 9 11 10 10 9 9 8
6 6 6 5 6 6 8 9 10 8 9 10 12 12 11 10 11 11 12 9 6 6 6 7 7 7 8 7 7 7 6 6 6 6 6 6 7 7 6 6 7 7 6 7 6 6 5 6 7 7 6 6 5 6 8 6 6 6 5 3 4 3 3 4 4 5 6 9 13 10 9 12 13 9 4 6 9 9 10 11 10 9 9 8 8
4 5 6 6 5 7 8 9 10 8 8 10 11 12 10 9 11 11 11 10 8 8 7 6 6 6 7 6 6 6 6 6 6 6 7 6 6 6 7 8 8 7 7 6 6 7 6 5 5 5 5 6 5 6 7 7 6 5 6 6 7 6 8 8 6 4 5 5 7 11 11 9 10 13 7 7 8 9 10 9 9 9 8 9 9
Wind_Direction
161 138 140 129 120 108 103 100 96 92 89 89 90 92 85 81 87 92 95 95 91 89 85 83 82 81 78 76 76 75 75 73 70 68 69 70 71 68 66 67 67 65 62 64 63 64 67 65 65 64 65 65 66 65 63 62 61 61 62 63 65 68 69 66 61 58 56 56 61 65 69 71 73 75 74 73 71 71 67 66 65 66 62 68 70
155 141 135 132 120 112 109 102 98 95 92 94 95 92 83 83 90 96 98 100 95 89 89 88 87 81 82 81 77 80 80 78 74 76 76 73 71 70 71 70 69 71 69 66 66 69 69 67 66 66 66 65 68 66 63 62 59 59 61 64 67 67 66 68 65 59 57 56 56 57 62 68 73 76 77 76 74 72 70 70 68 68 71 71 70
130 132 142 130 119 120 111 104 100 97 97 97 95 91 86 89 93 98 98 91 91 94 91 87 83 79 80 86 83 82 84 80 76 73 74 74 74 76 73 71 71 71 71 71 69 71 70 72 74 70 68 67 65 61 61 59 57 58 61 63 66 69 73 71 68 63 59 57 55 53 51 53 64 76 79 79 77 73 72 73 74 72 73 73 74
130 136 134 125 117 111 110 107 103 99 99 99 95 86 92 88 96 102 102 101 101 95 93 91 90 88 77 84 89 86 85 80 80 81 75 73 72 72 73 74 74 72 72 73 74 73 72 73 74 73 68 63 61 59 57 54 52 52 57 66 73 76 76 74 70 66 61 59 59 57 55 51 58 64 72 76 76 75 74 76 74 74 73 74 75
128 134 129 119 116 115 113 110 107 105 102 100 98 92 92 95 96 101 103 102 99 100 97 92 86 84 88 84 82 80 78 82 83 81 79 76 76 75 75 73 73 72 73 73 73 74 75 75 74 73 67 66 58 55 51 48 46 46 51 64 75 76 76 75 73 68 65 64 63 63 60 57 56 63 70 74 76 75 73 73 74 74 76 75 75
134 133 129 123 119 120 118 114 107 105 105 104 101 91 97 96 98 102 103 102 104 102 97 93 92 89 84 80 79 81 79 71 79 81 78 79 77 76 73 76 77 76 74 73 73 74 76 76 77 77 78 72 59 53 50 46 45 44 47 68 79 79 76 73 73 71 68 65 62 59 59 60 67 66 74 76 75 78 78 77 79 76 75 74 74
134 135 130 128 124 126 120 115 112 108 106 102 95 88 89 95 96 101 105 108 106 102 99 97 92 86 86 86 87 82 75 74 73 73 78 82 84 83 81 78 77 77 78 78 78 76 77 78 79 80 82 79 60 55 51 49 47 47 58 78 81 79 77 75 73 71 67 67 62 62 63 61 60 76 74 72 77 78 77 75 74 74 72 72 73
135 133 133 130 129 128 119 117 115 111 106 101 95 93 92 89 91 98 104 106 106 105 103 99 94 89 84 87 84 81 80 79 80 78 77 75 70 79 83 77 79 78 76 75 75 75 74 76 78 81 79 73 61 58 53 51 50 57 68 78 79 75 73 73 73 71 67 65 64 64 62 59 63 73 78 76 72 71 73 74 72 71 72 73 71
137 133 129 131 132 125 120 119 116 115 111 104 99 95 94 88 90 95 102 106 104 102 102 98 95 92 89 84 81 77 80 80 80 81 83 82 75 75 78 77 75 77 78 76 76 75 73 74 76 82 83 72 62 57 54 52 52 59 70 73 73 75 75 72 68 67 64 62 62 61 59 60 65 70 75 75 74 72 69 63 63 68 71 70 71
133 129 130 128 134 126 125 122 119 116 114 108 104 102 102 97 91 96 102 105 107 104 102 99 98 92 87 83 80 74 80 84 79 80 83 83 85 84 82 81 78 76 78 79 77 76 76 76 77 79 75 63 59 57 54 52 53 60 68 71 73 73 71 69 67 65 67 65 65 65 66 69 61 76 80 79 77 77 82 86 86 75 70 69 71
128 129 130 131 138 132 127 122 120 120 118 113 108 104 102 100 96 98 102 105 105 107 106 101 94 93 90 87 85 84 84 85 82 82 85 88 86 82 80 79 77 76 75 77 79 79 79 77 77 79 69 60 56 55 52 51 53 56 63 72 75 75 73 71 69 68 68 70 69 67 72 73 64 70 77 76 74 71 63 69 73 74 75 76 74
127 129 130 136 140 131 126 125 125 123 120 117 112 107 105 106 104 104 103 105 108 110 107 102 100 97 96 92 88 87 81 91 95 90 93 92 87 84 83 81 80 79 79 79 78 77 79 80 78 76 68 58 53 50 50 50 50 50 55 62 73 73 70 70 70 66 65 61 58 53 49 57 62 74 75 75 74 76 76 73 72 76 74 70 73
126 129 133 136 136 133 128 128 127 127 125 122 116 113 109 112 112 106 108 112 113 110 107 103 102 99 95 92 91 86 83 78 90 106 94 81 80 80 82 83 83 81 80 79 79 80 80 80 78 78 73 60 51 48 47 47 48 48 50 59 72 79 80 79 73 71 65 60 56 51 48 29 54 69 66 68 72 71 71 70 67 63 65 70 74
127 132 133 135 138 135 130 128 129 131 127 125 121 118 116 110 110 111 111 112 111 110 107 106 105 104 101 99 95 92 89 84 60 74 84 83 83 81 82 84 84 82 79 80 83 81 81 83 83 81 75 63 53 50 47 46 46 49 53 55 58 82 86 84 77 73 67 57 51 46 39 36 57 71 73 73 71 70 69 71 73 71 71 74 75
133 138 135 133 138 138 132 131 132 131 129 125 123 121 119 113 109 115 119 114 111 110 109 110 109 107 101 96 97 97 94 74 69 67 95 95 94 91 87 85 83 83 83 82 82 82 82 84 83 80 75 63 56 54 49 46 48 47 50 55 61 65 70 70 68 65 64 55 44 41 35 49 67 68 75 76 75 75 74 73 72 75 78 78 76
136 138 133 136 138 139 133 134 134 132 130 128 128 126 122 119 112 107 115 118 114 115 111 107 106 99 98 103 107 104 93 83 75 75 82 90 93 91 89 87 86 84 84 84 84 85 84 85 86 82 77 69 61 57 53 51 49 47 47 50 58 71 73 76 70 64 62 61 55 49 41 59 74 76 79 82 84 81 79 76 76 74 75 75 78
133 137 137 140 142 142 138 137 138 135 133 133 129 127 126 126 123 112 101 104 118 121 117 110 103 99 97 93 92 93 93 85 81 77 87 91 91 92 93 93 90 89 89 90 89 89 88 86 85 83 78 71 65 60 54 49 48 45 44 45 44 45 67 78 76 72 70 62 54 45 47 43 72 80 82 79 77 77 76 80 84 87 82 80 79
139 141 142 147 147 148 144 138 139 137 135 131 131 130 131 129 125 120 111 105 105 112 101 103 103 100 97 99 103 101 92 86 87 86 77 89 94 92 94 97 96 95 94 93 93 94 95 91 89 86 81 74 68 65 56 46 41 36 32 30 38 68 78 81 81 75 72 64 51 46 42 74 78 79 82 85 88 88 92 91 86 85 91 93 81
144 144 143 150 152 152 150 146 144 141 139 136 138 136 132 130 127 124 116 113 113 112 109 110 111 110 108 108 109 105 98 95 95 95 96 96 95 94 97 99 103 100 96 94 96 97 95 95 91 89 86 80 70 61 50 40 33 31 27 26 39 94 93 88 86 80 73 61 44 34 23 64 79 82 85 86 91 93 87 81 77 81 87 75 88
148 144 150 159 155 155 156 152 149 149 146 143 143 139 135 134 133 128 121 118 118 117 116 115 119 117 118 116 116 112 105 102 100 95 97 99 101 103 101 102 103 104 100 100 100 100 96 95 92 92 92 88 78 60 38 27 31 29 25 17 33 61 81 95 96 92 86 68 51 31 46 64 73 74 81 87 90 93 91 93 100 99 96 88 80
148 151 156 164 159 159 160 158 158 156 152 147 145 141 140 132 130 127 124 124 124 123 119 121 123 129 127 129 125 124 123 116 102 106 101 106 108 105 102 99 101 100 104 106 103 102 102 96 98 101 106 99 87 72 46 18 13 24 22 11 26 81 103 97 99 103 97 96 75 36 13 338 74 85 86 87 89 94 97 98 100 94 90 89 95
156 156 167 164 159 163 163 164 162 164 159 153 149 143 144 133 133 132 128 128 128 128 130 137 142 150 148 142 138 138 135 123 118 112 112 111 109 111 110 107 99 98 100 102 107 107 103 102 103 117 121 121 108 87 49 18 352 9 20 15 26 69 78 101 105 104 102 91 78 36 347 78 86 98 95 95 101 100 96 101 106 117 113 101 93
174 160 177 163 162 164 164 168 171 168 160 156 152 151 150 143 142 138 138 139 145 145 148 148 160 161 170 163 140 143 141 131 133 126 118 121 120 117 116 113 108 103 104 108 107 107 102 105 115 130 145 108 53 79 106 11 347 355 15 14 356 65 86 107 111 116 118 111 70 43 18 114 105 112 119 104 111 115 119 119 113 113 115 111 107
180 172 180 165 161 162 170 173 171 169 157 155 151 156 156 150 150 148 148 153 158 159 159 163 172 174 174 174 130 142 135 123 124 120 116 107 111 115 118 117 117 117 115 112 118 123 131 125 125 115 132 258 318 332 294 167 283 315 359 6 355 59 81 122 126 133 132 129 111 61 23 16 91 90 115 138 124 128 132 130 129 127 128 131 125
180 174 168 182 164 168 172 172 166 168 155 153 154 164 161 155 160 157 161 164 168 173 172 173 188 176 172 174 144 146 134 135 138 129 127 127 122 122 124 125 129 124 128 128 137 142 116 119 108 143 169 223 275 279 248 218 257 280 308 334 37 68 82 115 136 143 151 149 138 107 92 78 105 158 94 76 134 151 158 154 145 144 147 159 130
179 181 189 187 173 172 173 171 162 167 162 160 164 167 164 165 167 169 165 174 172 180 178 179 196 183 163 169 134 149 140 141 147 142 140 144 144 152 161 159 148 164 148 146 160 150 163 135 168 172 222 184 225 246 234 233 223 256 259 262 134 87 82 97 139 147 161 158 144 140 146 161 214 159 180 167 174 185 170 173 169 157 160 165 156
186 196 190 184 185 166 178 166 164 167 167 163 160 165 175 171 168 170 168 179 178 178 185 178 191 190 160 149 144 154 148 150 156 153 155 155 166 171 175 184 171 189 179 155 177 207 167 183 195 203 203 222 243 211 171 175 210 238 262 157 94 87 77 105 122 158 165 163 162 154 162 190 224 295 215 185 188 196 204 203 192 183 172 199 196
182 191 193 186 188 180 172 169 165 167 170 167 164 173 176 170 171 169 176 180 171 181 188 177 175 197 157 167 164 150 155 153 172 162 170 168 186 186 177 187 191 208 186 170 182 210 188 188 213 239 220 263 211 109 102 129 168 138 116 72 104 112 129 196 122 155 166 172 182 170 177 182 242 299 254 206 210 207 203 210 210 204 190 195 223
187 192 193 188 191 183 173 172 169 170 168 169 171 177 174 171 168 174 177 180 179 182 184 168 167 196 166 165 176 151 156 161 173 186 163 182 198 191 172 190 194 216 167 183 176 181 177 173 207 201 193 197 133 217 272 282 288 256 163 206 164 192 179 186 167 138 169 183 179 198 192 194 209 287 260 226 236 205 212 220 226 222 220 215 214
191 190 188 194 189 181 181 177 176 176 169 168 172 175 176 172 176 178 173 176 185 180 178 169 175 179 191 179 186 169 164 168 183 186 165 190 193 190 174 182 187 204 160 163 185 159 191 229 192 201 180 178 192 231 207 257 273 261 198 210 210 202 199 188 201 159 178 179 198 205 212 201 204 232 247 255 264 243 244 219 233 232 230 235 225
182 190 190 190 188 182 186 182 177 175 173 174 168 175 170 171 178 178 164 177 181 176 174 176 173 181 188 189 177 189 163 175 177 182 183 177 187 176 179 170 171 180 169 168 181 167 183 206 211 208 198 204 211 214 202 222 244 271 256 221 234 217 212 213 213 196 158 187 199 214 220 215 207 221 235 240 235 239 239 240 242 240 239 235 237
185 190 189 181 184 189 183 186 178 175 176 181 170 175 179 166 172 172 173 171 171 177 174 170 174 180 186 177 192 179 174 166 185 180 179 174 178 180 172 157 186 178 170 160 170 178 186 218 221 212 195 190 223 212 208 200 225 245 248 221 231 222 233 224 222 223 209 178 193 205 213 218 221 219 227 232 237 259 283 273 244 243 244 244 248
194 186 187 179 186 190 184 186 180 177 180 183 179 177 179 168 169 173 173 169 169 173 176 174 167 177 186 175 185 199 178 160 179 194 178 173 171 175 176 183 191 180 178 163 166 184 148 134 155 143 110 87 45 272 259 222 212 242 244 248 220 222 228 221 234 234 223 219 187 191 202 211 218 227 228 228 231 249 261 274 259 246 246 245 249
186 192 182 187 185 186 186 179 182 181 183 182 182 175 181 175 171 171 172 171 173 176 185 181 169 173 181 181 181 199 189 167 158 190 181 169 170 172 180 196 203 184 171 151 165 181 172 149 196 151 235 250 259 270 238 248 248 254 255 261 263 239 231 231 228 222 226 224 218 188 204 206 214 219 227 231 231 236 246 256 264 245 242 249 252
173 186 189 188 181 183 183 185 180 182 180 182 184 184 177 173 173 172 176 175 178 182 185 191 180 176 178 185 177 192 194 155 158 164 185 169 170 177 181 192 186 176 168 175 162 177 168 187 174 195 254 264 266 272 251 243 249 259 259 258 248 248 251 241 240 248 236 234 233 227 208 209 213 219 225 224 234 232 236 244 250 248 252 260 255
183 184 190 183 185 182 184 186 180 177 183 181 183 182 176 173 173 173 174 178 178 184 185 189 194 179 181 189 184 178 197 179 141 171 171 176 171 177 188 181 173 164 172 173 163 178 189 195 207 181 210 251 256 262 256 260 259 259 261 267 257 244 230 240 248 247 241 235 234 234 223 214 215 220 219 226 230 234 236 238 239 242 248 254 260
195 182 183 184 184 185 184 186 186 184 179 176 177 179 172 173 173 176 174 176 181 188 187 182 187 190 188 188 189 186 194 207 190 169 173 189 180 173 182 179 170 167 170 178 185 190 182 204 222 214 189 211 215 245 262 257 265 256 258 256 253 236 230 227 234 235 245 240 242 237 236 233 221 219 222 222 224 232 240 239 240 239 239 248 252
197 193 185 183 183 181 185 187 188 188 182 178 173 175 182 173 171 172 176 180 185 186 188 184 187 189 191 191 186 188 193 206 208 186 183 191 186 180 181 181 172 173 177 177 198 194 199 190 216 217 199 191 211 223 250 257 255 261 259 256 254 233 232 233 232 237 230 243 242 238 233 234 232 231 225 224 223 227 234 239 240 242 241 239 244
194 195 189 186 179 176 179 184 184 187 185 181 177 165 163 180 176 170 177 187 187 189 187 193 192 183 192 193 182 183 192 196 205 218 210 197 189 191 187 185 177 180 179 182 193 202 208 206 201 224 218 206 199 203 219 230 252 257 257 254 250 242 240 241 235 231 233 233 236 241 240 241 235 240 240 229 225 232 234 236 236 239 244 243 242
193 191 190 186 183 174 175 177 185 182 178 180 174 177 172 179 188 190 187 192 189 188 195 196 191 190 185 184 195 184 181 192 194 205 219 217 202 190 189 179 177 169 176 181 202 202 204 201 217 199 222 248 233 218 205 206 249 258 271 282 261 257 256 246 245 239 243 240 239 239 240 244 238 248 245 242 238 235 234 235 236 242 243 244 242
191 188 188 191 188 182 173 181 183 177 174 178 184 185 189 193 200 199 199 190 190 189 194 196 196 197 180 183 187 196 190 186 192 193 207 212 211 195 187 180 178 178 181 199 201 199 198 197 201 193 201 218 240 222 231 193 257 289 285 273 284 263 257 257 250 248 245 244 241 242 245 248 248 247 246 245 247 248 248 241 240 241 244 246 247
197 188 191 194 192 184 184 182 176 180 182 183 185 191 196 198 194 198 185 177 183 190 197 198 198 197 195 185 184 191 193 197 194 190 197 201 202 202 198 192 182 191 199 199 191 196 193 200 187 215 220 207 225 201 209 151 253 235 284 311 300 285 247 240 247 253 248 250 244 245 251 245 249 247 250 250 252 252 253 251 250 245 244 244 248
190 191 194 191 191 188 191 183 182 182 186 183 181 193 196 200 196 194 183 176 196 195 191 193 191 196 200 199 191 187 190 196 197 196 194 198 202 197 200 196 193 188 190 199 200 199 197 200 193 200 226 242 237 222 197 181 225 157 202 350 303 332 336 315 274 262 258 257 248 247 245 245 248 248 249 252 254 254 252 250 250 249 249 248 247
190 196 193 191 192 194 191 188 187 186 185 187 189 193 192 189 193 177 183 180 179 187 191 191 196 196 204 200 204 196 195 196 192 196 200 196 194 198 197 196 200 192 194 200 200 208 199 207 202 211 185 226 216 233 203 205 192 129 287 214 239 112 309 306 321 273 224 239 233 242 242 249 254 257 250 244 248 251 254 253 251 251 251 250 250
192 192 191 191 192 195 194 190 189 189 189 187 187 179 164 168 177 167 169 196 158 171 181 206 201 199 198 201 204 197 200 201 192 193 195 199 199 196 193 196 197 198 199 205 203 209 204 203 197 198 197 209 236 229 245 200 211 204 190 71 334 301 231 285 353 287 195 261 244 233 237 238 243 244 235 243 245 249 253 253 251 251 252 251 253
196 195 193 194 192 194 192 190 190 191 191 188 183 172 176 177 174 179 187 194 203 192 201 201 194 196 203 194 196 196 199 203 201 199 201 199 196 193 192 191 196 197 198 205 209 199 202 201 205 200 211 219 225 225 239 232 216 213 224 223 201 244 285 254 360 299 340 213 239 212 235 228 242 248 239 247 245 248 241 248 246 248 245 245 245
205 197 197 198 197 192 191 187 189 192 190 184 181 176 180 186 188 192 193 193 199 211 206 193 190 194 179 186 194 197 199 198 202 196 198 197 195 191 191 193 191 192 196 196 193 201 206 208 208 201 213 217 210 240 235 224 261 264 235 239 250 238 203 256 257 298 295 301 261 234 251 220 230 235 238 237 240 244 245 240 244 244 244 242 241
201 193 200 198 196 194 190 191 188 190 190 182 183 185 187 190 192 196 197 199 203 206 192 186 174 172 181 188 187 195 199 201 197 199 193 188 191 191 189 190 189 194 185 192 197 206 208 217 208 212 216 207 206 220 238 207 209 241 199 229 240 250 251 246 247 243 277 290 288 269 231 239 222 237 228 232 238 239 246 245 245 242 244 242 238
194 192 195 198 198 195 195 194 191 185 192 187 187 192 193 193 195 195 199 209 204 199 178 170 171 169 179 189 191 193 198 201 197 190 188 183 183 188 191 195 196 199 189 200 206 203 206 206 202 201 206 213 207 224 239 232 206 237 202 262 250 253 259 245 253 213 242 274 274 261 283 235 242 258 251 229 246 243 244 249 242 241 241 243 238
208 204 201 189 190 185 192 191 199 189 189 192 192 194 194 189 196 199 199 198 185 178 169 176 182 178 184 185 192 192 194 196 197 192 191 192 189 194 195 198 203 201 193 202 206 208 207 202 198 200 202 208 208 213 224 233 222 234 220 207 211 245 262 281 241 225 243 226 262 270 273 286 285 270 217 236 233 243 243 245 247 245 243 244 242
196 195 200 195 188 187 188 194 199 190 187 189 191 196 193 191 196 196 196 188 181 169 170 184 180 178 188 183 181 190 186 191 186 195 197 197 200 197 199 205 202 200 198 196 203 204 202 202 205 198 200 208 216 221 232 238 236 239 233 221 232 214 227 239 239 204 226 259 275 265 261 249 253 282 255 227 238 240 246 245 245 246 241 243 244